Regional Weather Roundup
Issued by NWS

Home | Current Version | Previous Version | Graphics & Text | Print | Product List | Glossary On
Versions: 1 2 3 4 5 6 7 8 9 10 11 12 13 14 15 16 17 18 19 20 21 22 23 24 25 26 27 28 29 30 31 32 33 34 35 36 37 38 39 40 41 42 43 44 45 46 47 48 49 50
976
ASUS43 KDMX 292308
RWRIA

WEATHER ROUNDUP FOR IOWA
NATIONAL WEATHER SERVICE DES MOINES IA
600 PM CDT SUN MAY 29 2016

NOTE: "FAIR" INDICATES FEW OR NO CLOUDS BELOW 12,000 FEET WITH NO
SIGNIFICANT WEATHER AND/OR OBSTRUCTIONS TO VISIBILITY.

* - THESE STATIONS ARE NOT NWS STATIONS...THUS NOT UNDER NWS
QUALITY CONTROL.  THEY ALSO DO NOT REPORT WEATHER SUCH
AS PRECIPITATION OR FOG.

IAZ001>003-012>014-020>022-031>034-043>046-300000-
   NORTHWEST IOWA

CITY           SKY/WX    TMP DP  RH WIND       PRES   REMARKS
CARROLL *      MOSUNNY   82  54  36 NW10      30.00F HX  81
CHEROKEE *     SUNNY     79  57  47 NW8       30.01S HX  80
DENISON *      SUNNY     81  55  41 VRB5      29.98F HX  80
LE MARS *      SUNNY     79  55  44 VRB7      30.01F
ORANGE CITY *  SUNNY     77  54  44 NW6       30.02F
SHELDON *      SUNNY     79  50  36 W9G15     30.01F
SIOUX CITY     SUNNY     83  58  42 N5        29.99F HX  83
SPENCER        SUNNY     77  48  35 NW13      30.01F
STORM LAKE *   SUNNY     77  55  47 W10G17    30.01F
$$

IAZ055>058-069>071-079>083-090>094-300000-
   SOUTHWEST IOWA

CITY           SKY/WX    TMP DP  RH WIND       PRES   REMARKS
ATLANTIC *     SUNNY     82  54  36 W8        30.00F HX  81
AUDUBON *        N/A     82  54  36 SW7       30.02F HX  81
CLARINDA *       N/A     84  61  45 MISG      30.01F HX  84
COUNCIL BLFS * SUNNY     82  57  42 VRB3      30.00F HX  82
CRESTON *      SUNNY     81  57  44 W8G15     30.04S HX  81
HARLAN  *      SUNNY     82  54  36 SW10      30.03F HX  81
LAMONI           N/A     81  63  54 W8        30.03F HX  82
RED OAK *      SUNNY     84  59  42 SW5       30.00F HX  84
SHENANDOAH *   SUNNY     86  55  35 VRB3      30.00F HX  84
$$

IAZ047>049-059>061-072>074-084-300000-
   CENTRAL IOWA

CITY           SKY/WX    TMP DP  RH WIND       PRES   REMARKS
AMES           MOSUNNY   81  56  42 W9        29.99F HX  81
ANKENY *       MOSUNNY   82  55  39 MISG      29.99F HX  82
BOONE *        MOSUNNY   81  55  41 W9        29.99F HX  80
CHARITON *     SUNNY     81  57  44 W6        30.03S HX  81
DES MOINES     MOSUNNY   83  52  34 W8        30.00F HX  82
GRINNELL*      SUNNY     79  55  44 W9        30.02F
KNOXVILLE *    SUNNY     82  54  36 W13       30.01F HX  81
MARSHALLTOWN   MOSUNNY   80  58  46 W12       29.99F HX  80
NEWTON *       MOSUNNY   81  57  44 SW8G15    30.00F HX  81
PELLA *        SUNNY     82  57  42 SW5       30.03F HX  82
PERRY *          N/A     82  54  36 W10       30.00F HX  81
$$

IAZ004>006-015-016-023>025-035-036-300000-
   NORTH CENTRAL IOWA

CITY           SKY/WX    TMP DP  RH WIND       PRES   REMARKS
ALGONA *       MOSUNNY   79  57  47 NW14G23   30.00S HX  80
CLARION *      MOSUNNY   79  55  44 NW12G21   29.99S
ESTHERVILLE    SUNNY     76  54  46 W16       30.00F
FORT DODGE *   MOSUNNY   81  54  39 W10G20    30.00S HX  80
MASON CITY     MOSUNNY   76  63  64 W10       30.00F
FOREST CITY *  SUNNY     73  55  53 W12G20    29.99F
WEBSTER CITY * SUNNY     82  54  36 W15       29.97F HX  81
IOWA FALLS *     N/A     81  55  41 W16       30.00F HX  80
$$

IAZ007>011-017>019-026>030-037>042-050>054-066-300000-
   NORTHEAST IOWA

CITY           SKY/WX    TMP DP  RH WIND       PRES   REMARKS
CEDAR RAPIDS   MOSUNNY   78  59  51 W10       30.00F
CHARLES CITY * MOSUNNY   75  57  53 NW12      30.00S
CLINTON *      MOSUNNY   81  59  47 W17       30.00F HX  81
DECORAH *      SUNNY     75  59  57 W9G17     29.97S
DUBUQUE        MOSUNNY   78  58  49 W14G21    30.00S
MONTICELLO *   PTSUNNY   79  57  47 NW9       29.99F HX  80
OELWEIN *      PTSUNNY   77  61  57 NW10      30.00F
WATERLOO       PTSUNNY   79  56  45 SW7       29.98F HX  80
$$

IAZ064-065-067-068-078-300000-
   EAST CENTRAL IOWA

CITY           SKY/WX    TMP DP  RH WIND       PRES   REMARKS
DAVENPORT      SUNNY     81  55  40 W16       30.01F HX  81
IOWA CITY      MOSUNNY   81  56  42 NW10      30.01F HX  81
MT. PLEASANT * SUNNY     84  55  37 SW7       30.02F HX  83
MUSCATINE *    SUNNY     82  55  39 W9        30.01F HX  82
QUAD CITIES    SUNNY     82  57  42 W9        30.00F HX  82
$$

IAZ062-063-075>077-085>089-095>099-300000-
   SOUTHEAST IOWA

CITY           SKY/WX    TMP DP  RH WIND       PRES   REMARKS
BURLINGTON     SUNNY     81  55  40 W8        30.02F HX  81
FAIRFIELD *      N/A    N/A N/A N/A MISG        N/A
FORT MADISON * SUNNY     82  54  36 W5        30.04S HX  81
KEOKUK *       SUNNY     82  57  42 SW7       30.03S HX  82
OSKALOOSA *      N/A     81  54  39 W10       30.02F HX  80
OTTUMWA        SUNNY     81  56  42 W5        30.01F HX  81
WASHINGTON *   SUNNY     81 -31   1 W10       30.03F
$$

ABBREVIATIONS USED IN REMARKS
   TC - TEMPERATURES IN CELSIUS
  WCI - WIND CHILL INDEX
   HX - HEAT INDEX
  VSB - VISIBILITY
$$





USA.gov is the U.S. government's official web portal to all federal, state and local government web resources and services.